GW1986 Weather Reports


Display with metric or nautical units.
time (UTC)temp
F
wind
direction
speed
MPH
gust
MPH
rain 1hr
in
rain 24hr
in
rain mn
in
humidity
%
barometer
mb
20260503024552 58 15 0.0 0.0 0.00 0.00 0.00 44 1015.9
20260503024011 58 65 0.0 0.0 0.00 0.00 0.00 44 1015.9
20260503023512 59 65 0.0 0.0 0.00 0.00 0.00 45 1015.9
20260503023046 59 65 0.0 0.0 0.00 0.00 0.00 44 1015.9
20260503022514 59 65 0.0 3.0 0.00 0.00 0.00 44 1015.8
20260503022011 60 65 0.0 4.0 0.00 0.00 0.00 44 1015.7
20260503021558 60 65 1.0 4.0 0.00 0.00 0.00 43 1015.6
20260503021017 61 56 0.0 4.0 0.00 0.00 0.00 42 1015.6
20260503020517 62 44 0.0 0.0 0.00 0.00 0.00 40 1015.6
20260503020050 62 41 0.0 0.0 0.00 0.00 0.00 40 1015.7
20260503015512 62 38 0.0 0.0 0.00 0.00 0.00 40 1015.8
20260503015013 62 38 0.0 0.0 0.00 0.00 0.00 40 1015.6
20260503014547 62 38 0.0 1.0 0.00 0.00 0.00 40 1015.8
20260503014015 62 38 0.0 4.0 0.00 0.00 0.00 40 1015.8
20260503013518 62 38 0.0 4.0 0.00 0.00 0.00 40 1015.7
20260503013043 63 21 0.0 4.0 0.00 0.00 0.00 39 1015.8
20260503012514 63 44 1.0 3.0 0.00 0.00 0.00 39 1015.8
20260503012014 64 5 0.0 3.0 0.00 0.00 0.00 38 1015.7
20260503011553 65 336 0.0 3.0 0.00 0.00 0.00 36 1015.7
20260503011014 65 258 0.0 0.0 0.00 0.00 0.00 37 1015.7
20260503010516 65 258 0.0 4.0 0.00 0.00 0.00 36 1015.7
20260503010057 65 258 0.0 6.0 0.00 0.00 0.00 36 1015.9
20260503005515 65 281 1.0 8.0 0.00 0.00 0.00 36 1015.7
20260503005016 65 292 3.0 8.0 0.00 0.00 0.00 36 1015.9
20260503004611 65 316 3.0 8.0 0.00 0.00 0.00 37 1015.9
20260503004015 65 302 0.0 5.0 0.00 0.00 0.00 36 1016.1
20260503003515 65 289 1.0 5.0 0.00 0.00 0.00 36 1016.0
20260503003048 65 288 0.0 3.0 0.00 0.00 0.00 37 1016.1
20260503002514 64 288 0.0 3.0 0.00 0.00 0.00 38 1016.2
20260503002020 64 288 0.0 4.0 0.00 0.00 0.00 38 1016.3
20260503001602 63 288 0.0 4.0 0.00 0.00 0.00 38 1016.3
20260503001013 64 334 0.0 4.0 0.00 0.00 0.00 38 1016.3
20260503000520 64 290 0.0 5.0 0.00 0.00 0.00 38 1016.3
20260503000055 64 346 1.0 5.0 0.00 0.00 0.00 38 1016.4
20260502235515 64 298 0.0 5.0 0.00 0.00 0.00 38 1016.5
20260502235016 64 214 0.0 5.0 0.00 0.00 0.00 37 1016.4
20260502234611 64 242 0.0 7.0 0.00 0.00 0.00 37 1016.4
20260502234013 64 257 1.0 17.0 0.00 0.00 0.00 37 1016.6
20260502233513 64 263 4.0 17.0 0.00 0.00 0.00 38 1016.4
20260502233106 65 173 0.0 11.0 0.00 0.00 0.00 38 1016.6
20260502232515 65 78 3.0 11.0 0.00 0.00 0.00 38 1016.4
20260502232014 65 40 0.0 9.0 0.00 0.00 0.00 39 1016.6
20260502231604 65 107 4.0 9.0 0.00 0.00 0.00 38 1016.5
20260502231016 65 108 6.0 9.0 0.00 0.00 0.00 37 1016.6
20260502230513 65 111 0.0 2.0 0.00 0.00 0.00 39 1016.8
20260502230056 64 94 0.0 10.0 0.00 0.00 0.00 38 1016.8
20260502225515 64 149 4.0 12.0 0.00 0.00 0.00 38 1017.1
20260502225016 64 126 6.0 12.0 0.00 0.00 0.00 39 1016.9
20260502224549 64 68 2.0 10.0 0.00 0.00 0.00 38 1017.1
20260502224017 64 130 4.0 10.0 0.00 0.00 0.00 39 1017.1
20260502223515 64 157 1.0 7.0 0.00 0.00 0.00 39 1017.4
20260502223051 64 213 2.0 8.0 0.00 0.00 0.00 39 1017.5
20260502222517 64 127 3.0 8.0 0.00 0.00 0.00 39 1017.3
20260502222013 64 94 0.0 9.0 0.00 0.00 0.00 40 1017.6
20260502221604 64 138 2.0 9.0 0.00 0.00 0.00 40 1017.6
20260502221017 63 346 0.0 1.0 0.00 0.00 0.00 41 1017.8
20260502220515 62 352 0.0 4.0 0.00 0.00 0.00 41 1017.8
20260502220053 62 123 0.0 8.0 0.00 0.00 0.00 41 1017.7
20260502215514 62 98 2.0 8.0 0.00 0.00 0.00 41 1017.8
20260502215016 62 105 2.0 8.0 0.00 0.00 0.00 41 1017.8
20260502214603 63 53 4.0 6.0 0.00 0.00 0.00 41 1017.9
20260502214014 63 57 3.0 6.0 0.00 0.00 0.00 41 1018.1
20260502213520 63 69 3.0 5.0 0.00 0.00 0.00 43 1018.3
20260502213057 62 143 0.0 4.0 0.00 0.00 0.00 41 1018.3
20260502212517 62 130 0.0 0.0 0.00 0.00 0.00 42 1018.4
20260502212016 62 50 0.0 7.0 0.00 0.00 0.00 42 1018.5
20260502211559 62 161 0.0 7.0 0.00 0.00 0.00 42 1018.6
20260502211020 62 97 0.0 9.0 0.00 0.00 0.00 43 1018.5
20260502210517 62 177 0.0 9.0 0.00 0.00 0.00 43 1018.7
20260502210054 62 101 0.0 10.0 0.00 0.00 0.00 43 1018.7
20260502205516 62 74 2.0 10.0 0.00 0.00 0.00 43 1018.8
20260502205017 62 48 1.0 7.0 0.00 0.00 0.00 44 1018.7
20260502204555 61 48 4.0 7.0 0.00 0.00 0.00 44 1018.6
20260502204014 62 49 1.0 7.0 0.00 0.00 0.00 44 1018.7
20260502203514 62 96 1.0 10.0 0.00 0.00 0.00 43 1018.7
20260502203113 61 82 5.0 12.0 0.00 0.00 0.00 45 1018.7
20260502202516 61 117 5.0 12.0 0.00 0.00 0.00 44 1018.8
20260502202013 61 84 5.0 12.0 0.00 0.00 0.00 44 1018.8
20260502201600 61 84 5.0 14.0 0.00 0.00 0.00 44 1019.0
20260502201018 62 126 9.0 14.0 0.00 0.00 0.00 43 1018.9
20260502200515 61 84 3.0 14.0 0.00 0.00 0.00 45 1019.1
20260502200101 61 43 8.0 14.0 0.00 0.00 0.00 45 1019.1
20260502195515 61 73 0.0 16.0 0.00 0.00 0.00 45 1019.1
20260502195017 60 92 3.0 16.0 0.00 0.00 0.00 45 1019.3
20260502194607 61 138 4.0 10.0 0.00 0.00 0.00 44 1019.4
20260502194017 61 28 1.0 8.0 0.00 0.00 0.00 45 1019.5
20260502193514 61 44 2.0 11.0 0.00 0.00 0.00 44 1019.4
20260502193059 61 23 7.0 11.0 0.00 0.00 0.00 44 1019.5
20260502192516 61 22 0.0 9.0 0.00 0.00 0.00 45 1019.6
20260502192015 61 346 1.0 10.0 0.00 0.00 0.00 43 1019.6
20260502191610 61 352 4.0 10.0 0.00 0.00 0.00 44 1019.8
20260502191018 60 297 6.0 12.0 0.00 0.00 0.00 44 1019.8
20260502190514 60 350 7.0 12.0 0.00 0.00 0.00 44 1019.8
20260502190107 60 319 8.0 14.0 0.00 0.00 0.00 44 1019.7
20260502185522 60 326 7.0 14.0 0.00 0.00 0.00 44 1019.6
20260502185017 60 10 4.0 8.0 0.00 0.00 0.00 44 1019.8
20260502184607 60 257 2.0 9.0 0.00 0.00 0.00 43 1019.8
20260502184020 60 342 5.0 9.0 0.00 0.00 0.00 43 1019.9
20260502183518 60 41 0.0 4.0 0.00 0.00 0.00 44 1020.0
20260502183103 61 23 0.0 3.0 0.00 0.00 0.00 43 1020.0
20260502182518 60 317 0.0 12.0 0.00 0.00 0.00 43 1019.9
20260502182018 60 286 6.0 12.0 0.00 0.00 0.00 43 1020.0
20260502181558 61 298 7.0 15.0 0.00 0.00 0.00 43 1020.1
20260502181019 61 302 7.0 17.0 0.00 0.00 0.00 43 1020.0
20260502180519 61 216 8.0 17.0 0.00 0.00 0.00 44 1020.1
20260502180111 61 261 11.0 17.0 0.00 0.00 0.00 43 1019.9
20260502170516 59 287 6.0 15.0 0.00 0.00 0.00 46 1019.9
20260502164015 59 294 13.0 17.0 0.00 0.00 0.00 46 1020.0
20260502163515 59 314 13.0 18.0 0.00 0.00 0.00 46 1020.1
20260502163109 60 327 7.0 16.0 0.00 0.00 0.00 45 1019.9
20260502162519 60 276 9.0 16.0 0.00 0.00 0.00 45 1020.0
20260502162015 60 290 3.0 16.0 0.00 0.00 0.00 45 1020.2
20260502161610 60 318 10.0 14.0 0.00 0.00 0.00 45 1020.1
20260502161015 60 327 9.0 16.0 0.00 0.00 0.00 46 1020.2
20260502160518 59 302 11.0 16.0 0.00 0.00 0.00 46 1020.1
20260502160110 59 327 10.0 15.0 0.00 0.00 0.00 46 1020.1
20260502152018 58 304 4.0 10.0 0.00 0.00 0.00 47 1020.1
20260502151611 58 325 6.0 11.0 0.00 0.00 0.00 47 1019.9
20260502151022 57 16 5.0 11.0 0.00 0.00 0.00 48 1020.0
20260502150516 57 31 3.0 12.0 0.00 0.00 0.00 47 1019.8
20260502150116 57 57 8.0 12.0 0.00 0.00 0.00 47 1019.6
20260502140113 54 49 8.0 13.0 0.00 0.00 0.00 50 1019.4
20260502130518 50 12 7.0 9.0 0.00 0.00 0.00 54 1019.1
20260502130110 50 11 5.0 10.0 0.00 0.00 0.00 54 1019.0
20260502123516 50 17 9.0 12.0 0.00 0.00 0.00 54 1018.9
20260502123112 50 17 9.0 13.0 0.00 0.00 0.00 54 1018.7
20260502122515 50 36 9.0 16.0 0.00 0.00 0.00 55 1018.6
20260502122017 50 35 11.0 17.0 0.00 0.00 0.00 55 1018.5
20260502121603 50 26 11.0 17.0 0.00 0.00 0.00 55 1018.4
20260502121015 49 27 12.0 16.0 0.00 0.00 0.00 55 1018.3
20260502120515 49 32 12.0 16.0 0.00 0.00 0.00 55 1018.3
20260502120114 49 46 10.0 17.0 0.00 0.00 0.00 56 1018.3
20260502115519 49 38 10.0 17.0 0.00 0.00 0.00 55 1018.3
20260502115017 50 54 12.0 19.0 0.00 0.00 0.00 55 1018.2
20260502114620 50 55 13.0 19.0 0.00 0.00 0.00 55 1017.9
20260502114017 50 40 14.0 20.0 0.00 0.00 0.00 54 1018.1
20260502113516 50 38 14.0 20.0 0.00 0.00 0.00 54 1018.0
20260502113103 50 32 16.0 23.0 0.00 0.00 0.00 53 1017.9
20260502112515 51 31 17.0 23.0 0.00 0.00 0.00 53 1017.8
20260502112017 50 30 14.0 20.0 0.00 0.00 0.00 53 1018.0
20260502111607 51 37 16.0 21.0 0.00 0.00 0.00 53 1018.0
20260502111016 51 38 16.0 21.0 0.00 0.00 0.00 52 1017.6
20260502110516 51 43 17.0 21.0 0.00 0.00 0.00 52 1017.3
20260502110121 51 36 16.0 20.0 0.00 0.00 0.00 51 1017.3
20260502105516 51 40 14.0 20.0 0.00 0.00 0.00 51 1017.3
20260502105019 51 40 14.0 20.0 0.00 0.00 0.00 51 1017.1
20260502104603 52 42 15.0 20.0 0.00 0.00 0.00 50 1017.2
20260502104017 52 44 14.0 19.0 0.00 0.00 0.00 49 1017.0
20260502103517 52 59 15.0 20.0 0.00 0.00 0.00 49 1017.0
20260502103115 52 46 15.0 20.0 0.00 0.00 0.00 49 1016.8
20260502102519 52 40 14.0 20.0 0.00 0.00 0.00 49 1016.8
20260502102015 52 34 13.0 18.0 0.00 0.00 0.00 49 1016.7
20260502101605 52 38 14.0 18.0 0.00 0.00 0.00 48 1016.8
20260502101019 51 36 12.0 16.0 0.00 0.00 0.00 49 1016.9
20260502100516 51 42 9.0 12.0 0.00 0.00 0.00 48 1016.8
20260502100126 51 38 6.0 11.0 0.00 0.00 0.00 48 1016.7
20260502091530 50 300 3.0 9.0 0.00 0.00 0.00 48 1016.3
20260502091018 50 275 6.0 9.0 0.00 0.00 0.00 48 1016.2
20260502090515 49 269 6.0 10.0 0.00 0.00 0.00 48 1016.0
20260502071012 47 292 4.0 9.0 0.00 0.00 0.00 46 1015.6
20260502070512 47 321 7.0 10.0 0.00 0.00 0.00 46 1015.7
20260502070030 47 313 6.0 10.0 0.00 0.00 0.00 46 1015.7
20260502065512 47 320 7.0 9.0 0.00 0.00 0.00 46 1015.6
20260502065009 47 321 5.0 8.0 0.00 0.00 0.00 45 1015.5
20260502064529 47 313 6.0 9.0 0.00 0.00 0.00 46 1015.7
20260502064009 47 306 5.0 9.0 0.00 0.00 0.00 45 1015.7
20260502063513 48 311 6.0 9.0 0.00 0.00 0.00 44 1015.6
20260502063028 48 312 7.0 9.0 0.00 0.00 0.00 44 1015.4
20260502062511 49 316 7.0 9.0 0.00 0.00 0.00 43 1015.4
20260502062010 49 316 7.0 9.0 0.00 0.00 0.00 43 1015.6
20260502061532 50 321 6.0 9.0 0.00 0.00 0.00 42 1015.4
20260502061012 50 318 6.0 9.0 0.00 0.00 0.00 42 1015.5
20260502060512 50 324 5.0 9.0 0.00 0.00 0.00 41 1015.5
20260502060032 52 317 7.0 9.0 0.00 0.00 0.00 39 1015.4
20260502055514 54 304 7.0 11.0 0.00 0.00 0.00 38 1015.4
20260502055015 55 294 9.0 12.0 0.00 0.00 0.00 37 1015.4
20260502054531 55 292 10.0 12.0 0.00 0.00 0.00 37 1015.4
20260502054011 53 298 11.0 12.0 0.00 0.00 0.00 39 1015.5
20260502053513 51 302 10.0 12.0 0.00 0.00 0.00 40 1015.5
20260502053030 51 309 10.0 12.0 0.00 0.00 0.00 40 1015.5
20260502052513 51 301 9.0 13.0 0.00 0.00 0.00 40 1015.4
20260502052010 51 313 10.0 13.0 0.00 0.00 0.00 39 1015.4
20260502051549 50 306 10.0 12.0 0.00 0.00 0.00 40 1015.4
20260502051014 49 320 8.0 11.0 0.00 0.00 0.00 40 1015.4
20260502050510 49 309 9.0 11.0 0.00 0.00 0.00 39 1015.5
20260502050032 50 302 8.0 10.0 0.00 0.00 0.00 37 1015.4
20260502045512 51 290 8.0 10.0 0.00 0.00 0.00 36 1015.4
20260502045012 52 296 8.0 10.0 0.00 0.00 0.00 35 1015.4
20260502044532 52 298 8.0 10.0 0.00 0.00 0.00 35 1015.5
20260502044013 52 300 8.0 11.0 0.00 0.00 0.00 35 1015.6
20260502043512 52 296 9.0 11.0 0.00 0.00 0.00 35 1015.4
20260502043029 52 301 9.0 11.0 0.00 0.00 0.00 35 1015.2
20260502042512 53 309 9.0 11.0 0.00 0.00 0.00 35 1015.2
20260502042010 54 298 9.0 11.0 0.00 0.00 0.00 34 1015.3
20260502041531 54 298 10.0 11.0 0.00 0.00 0.00 33 1015.3
20260502041012 56 295 10.0 12.0 0.00 0.00 0.00 32 1015.3
20260502040512 57 286 10.0 13.0 0.00 0.00 0.00 31 1015.4
20260502040035 59 288 11.0 15.0 0.00 0.00 0.00 30 1015.5
20260502035511 60 284 11.0 16.0 0.00 0.00 0.00 29 1015.3
20260502035011 60 278 13.0 18.0 0.00 0.00 0.00 29 1015.4
20260502034545 60 284 13.0 18.0 0.00 0.00 0.00 28 1015.2
20260502034012 61 294 14.0 18.0 0.00 0.00 0.00 28 1015.3
20260502033514 62 285 14.0 20.0 0.00 0.00 0.00 27 1015.0
20260502033045 60 270 14.0 20.0 0.00 0.00 0.00 28 1014.8
20260502032511 57 280 10.0 15.0 0.00 0.00 0.00 30 1015.0
20260502032011 56 272 8.0 9.0 0.00 0.00 0.00 30 1014.7
20260502031530 57 267 7.0 9.0 0.00 0.00 0.00 29 1014.7
20260502031010 57 269 7.0 9.0 0.00 0.00 0.00 28 1014.8
20260502030510 58 270 7.0 9.0 0.00 0.00 0.00 28 1014.7
20260502030037 59 272 7.0 10.0 0.00 0.00 0.00 26 1014.9
20260502025512 59 254 7.0 10.0 0.00 0.00 0.00 26 1014.8
20260502025009 59 260 6.0 8.0 0.00 0.00 0.00 27 1014.8